Weather in Chontaul

Russia / Republic of Dagestan     43°18′13″N   46°51′34″E
temp.,
°C
wind,
m/s
gust,
m/s
humid.,
%
clouds,
%
prec.,
mm/h
press.,
hPa
HPBL,
m
24 september, fri
fri2400:00+14nw3491100 0.9 1009324
03:00+14nnw2293100 1.1 1008269
06:00+14nw3496100 0.9 1008236
09:00+14wnw6994100 1.6 1010620
12:00+16wnw91274100 0.1 10111063
15:00+15wnw81175100 0.2 1013984
18:00+13w6118886 1.7 1014667
21:00+13w4886100 2.5 1015357
25 september, sat
sat2500:00+12w3389100 0.3 101564
03:00+12ssw2283100 0.5 101438
06:00+13se1179100 0.0 101411
09:00+16e336684 0.0 1013367
12:00+20e674347 0.0 10111047
15:00+21e773927 0.0 10101153
18:00+15e476487 0.0 1013146
21:00+14w2272100 0.0 101558
26 september, sun
sun2600:00+14w101273100 0.0 10181120
03:00+12w81281100 1.3 1020660
06:00+13wsw713675 0.6 1020438
09:00+17w812505 0.6 10201455
12:00+19wnw794388 0.0 10201955
15:00+20w793815 0.0 10191960
18:00+16wsw33530 0.0 101942
21:00+14ssw22565 0.0 101716
27 september, mon
mon2700:00+14sse22554 0.0 101511
03:00+14sw225231 0.0 101516
06:00+15nw235181 0.0 101527
09:00+19wnw695151 0.0 1015902
12:00+19wnw6752100 0.0 10151494
15:00+19nw6753100 0.1 10161458
18:00+16w4857100 0.0 1018716
21:00+16w5861100 0.0 1018553
28 september, tue
tue2800:00+15w5956100 0.0 1018595
03:00+15w3760100 0.0 1019374
06:00+14wnw3663100 0.0 1020279
09:00+15nw335270 0.0 1021556
12:00+19nnw33385 0.0 10201514
15:00+20n323644 0.0 10201927
18:00+17ne3547100 0.0 1021146
21:00+13ese34726 0.0 102288